CW7217 Weather Reports


time (UTC)temp
C
wind
direction
speed
KPH
gust
KPH
rain 1hr
cm
rain 24hr
cm
rain mn
cm
humidity
%
barometer
mb
20260506091555 11 0.0 0.0 0.00 0.00 0.00 81 1012.6
20260506090059 11 0.0 0.0 0.00 0.00 0.00 80 1012.4
20260506084618 11 0.0 0.0 0.00 0.00 0.00 80 1012.4
20260506083053 11 0.0 0.0 0.00 0.00 0.00 80 1012.3
20260506081559 11 0.0 0.0 0.00 0.00 0.00 80 1012.5
20260506073101 11 0.0 0.0 0.00 0.00 0.00 77 1012.4
20260506071559 12 0.0 0.0 0.00 0.00 0.00 76 1012.2
20260506061608 13 0.0 0.0 0.00 0.00 0.00 73 1012.1
20260506060108 13 0.0 0.0 0.00 0.00 0.00 72 1012.1
20260506044557 15 0.0 0.0 0.00 0.00 0.00 66 1010.8
20260506043052 16 0.0 0.0 0.00 0.00 0.00 64 1010.8
20260506041606 16 0.0 0.0 0.00 0.00 0.00 62 1010.8
20260506040059 17 0.0 0.0 0.00 0.00 0.00 61 1010.6
20260506034554 17 0.0 0.0 0.00 0.00 0.00 59 1010.8
20260506033054 18 0.0 0.0 0.00 0.00 0.00 57 1010.4
20260506031557 20 0.0 0.0 0.00 0.00 0.00 55 1010.3
20260506030057 21 0.0 0.0 0.00 0.00 0.00 53 1010.1
20260506024557 21 0.0 0.0 0.00 0.00 0.00 52 1009.9
20260506023108 21 0.0 0.0 0.00 0.00 0.00 52 1009.5
20260506021612 22 0.0 0.0 0.00 0.00 0.00 51 1009.3
20260506020058 22 0.0 0.0 0.00 0.00 0.00 50 1009.1
20260506014557 23 0.0 0.0 0.00 0.00 0.00 49 1008.8
20260506013109 23 0.0 0.0 0.00 0.00 0.00 48 1008.4
20260506011615 24 0.0 0.0 0.00 0.00 0.00 47 1007.9
20260506004557 25 0.0 0.0 0.00 0.00 0.00 45 1007.7
20260506003101 26 0.0 0.0 0.00 0.00 0.00 43 1007.4
20260506001559 27 0.0 0.0 0.00 0.00 0.00 42 1007.0
20260506000055 27 0.0 0.0 0.00 0.00 0.00 40 1006.8
20260505234556 28 0.0 0.0 0.00 0.00 0.00 36 1006.6
20260505233058 28 0.0 0.0 0.00 0.00 0.00 33 1006.4
20260505231607 29 0.0 0.0 0.00 0.00 0.00 32 1006.1
20260505230055 30 0.0 0.0 0.00 0.00 0.00 31 1006.4
20260505224556 30 0.0 0.0 0.00 0.00 0.00 30 1006.6
20260505223057 30 0.0 0.0 0.00 0.00 0.00 29 1006.2
20260505221600 31 0.0 0.0 0.00 0.00 0.00 29 1005.9
20260505220059 31 0.0 0.0 0.00 0.00 0.00 28 1005.3
20260505214558 32 0.0 0.0 0.00 0.00 0.00 27 1005.7
20260505213053 33 0.0 0.0 0.00 0.00 0.00 25 1005.6
20260505211556 35 0.0 0.0 0.00 0.00 0.00 23 1005.8
20260505210055 35 0.0 0.0 0.00 0.00 0.00 18 1006.0
20260505204556 35 0.0 0.0 0.00 0.00 0.00 17 1005.9
20260505203120 37 0.0 0.0 0.00 0.00 0.00 18 1005.9
20260505201608 36 0.0 0.0 0.00 0.00 0.00 19 1006.0
20260505200107 36 0.0 0.0 0.00 0.00 0.00 19 1006.5
20260505194558 37 0.0 0.0 0.00 0.00 0.00 22 1006.6
20260505193100 36 0.0 0.0 0.00 0.00 0.00 22 1006.5
20260505191611 34 0.0 0.0 0.00 0.00 0.00 24 1006.7
20260505190057 34 0.0 0.0 0.00 0.00 0.00 25 1007.0
20260505184557 34 0.0 0.0 0.00 0.00 0.00 25 1006.8
20260505183052 33 0.0 0.0 0.00 0.00 0.00 32 1007.3
20260505181603 33 0.0 0.0 0.00 0.00 0.00 34 1007.5
20260505180101 32 0.0 0.0 0.00 0.00 0.00 38 1007.6
20260505174555 32 0.0 0.0 0.00 0.00 0.00 38 1007.6
20260505173058 31 0.0 0.0 0.00 0.00 0.00 44 1007.6
20260505171556 30 0.0 0.0 0.00 0.00 0.00 44 1007.8
20260505170109 30 0.0 0.0 0.00 0.00 0.00 44 1007.8
20260505164556 29 0.0 0.0 0.00 0.00 0.00 47 1007.9
20260505163057 28 0.0 0.0 0.00 0.00 0.00 51 1007.9
20260505161614 27 0.0 0.0 0.00 0.00 0.00 53 1008.0
20260505153103 26 0.0 0.0 0.00 0.00 0.00 56 1007.6
20260505151606 25 0.0 0.0 0.00 0.00 0.00 56 1007.6
20260505124556 20 0.0 0.0 0.00 0.00 0.00 78 1006.3
20260505123054 20 0.0 0.0 0.00 0.00 0.00 78 1006.2
20260505121625 20 0.0 0.0 0.00 0.00 0.00 78 1006.0
20260505120056 20 0.0 0.0 0.00 0.00 0.00 78 1005.9
20260505114554 20 0.0 0.0 0.00 0.00 0.00 78 1005.8
20260505113053 20 0.0 0.0 0.00 0.00 0.00 77 1005.5
20260505111555 20 0.0 0.0 0.00 0.00 0.00 77 1005.6
20260505101558 20 0.0 0.0 0.00 0.00 0.00 76 1005.5
20260505100059 20 0.0 0.0 0.00 0.00 0.00 76 1005.4
20260505094556 20 0.0 0.0 0.00 0.00 0.00 75 1005.3
20260505093053 20 0.0 0.0 0.00 0.00 0.00 75 1005.2